Weather History for KPVU - November, 2011

Change the Weather History Date:

Monday, November 14, 2011

  Actual Average Record
Temperature  
Mean Temperature 40 °F -  
Max Temperature 53 °F 46 °F 70 °F (1990)
Min Temperature 28 °F 28 °F 23 °F (1982)
Degree Days  
Heating Degree Days 24    
Moisture  
Dew Point 28 °F    
Average Humidity 71    
Maximum Humidity 100    
Minimum Humidity 28    
Precipitation  
Precipitation 0.00 in - - ()
Sea Level Pressure  
Sea Level Pressure 29.89 in    
Wind  
Wind Speed 4 mph (ENE)    
Max Wind Speed 14 mph    
Max Gust Speed -    
Visibility 12 miles    
Events      
Averages and records for this station are not official NWS values.
T = Trace of Precipitation, MM = Missing Value Source: NWS Daily Summary

Daily Weather History Graph

Daily Weather History Graph

Search for Another Location

Airport or City:

Trip Planner

Search our weather history database for the weather conditions in past years. The results will help you decide how hot, cold, wet, or windy it might be!

Date:

Astronomy

Nov. 14, 2011 Rise Set
Actual Time 7:11 AM MST 5:10 PM MST
Civil Twilight 6:42 AM MST 5:40 PM MST
Nautical Twilight 6:09 AM MST 6:12 PM MST
Astronomical Twilight 5:37 AM MST 6:44 PM MST
Moon 8:21 PM MST (11/14) 10:32 AM MST (11/14)
Length of Visible Light 10h 57m
Length of Day
9h 59m
Waning Gibbous, 86% of the Moon is Illuminated
Nov 14
Waning Gibbous
Nov 18
Last Quarter
Nov 24
New
Dec 2
First Quarter
Dec 10
Full

Hourly Weather History & Observations

Time (MST) Temp. Windchill Dew Point Humidity Pressure Visibility Wind Dir Wind Speed Gust Speed Precip Events Conditions
12:15 AM 33.8 °F 29.6 °F 28.4 °F 81% 29.92 in 10.0 mi North 4.6 mph - N/A   Clear
12:35 AM 33.8 °F 30.8 °F 32.0 °F 93% 29.92 in 10.0 mi North 3.5 mph - N/A   Clear
12:55 AM 33.8 °F 30.8 °F 30.2 °F 87% 29.91 in 10.0 mi WNW 3.5 mph - N/A   Clear
1:35 AM 35.6 °F 31.7 °F 30.2 °F 81% 29.90 in 10.0 mi NNW 4.6 mph - N/A   Clear
1:55 AM 35.6 °F - 30.2 °F 81% 29.90 in 10.0 mi Calm Calm - N/A   Clear
2:35 AM 33.8 °F - 30.2 °F 87% 29.90 in 10.0 mi Calm Calm - N/A   Partly Cloudy
2:55 AM 33.8 °F 30.8 °F 30.2 °F 87% 29.90 in 10.0 mi East 3.5 mph - N/A   Clear
3:15 AM 33.8 °F 29.6 °F 32.0 °F 93% 29.89 in 10.0 mi ESE 4.6 mph - N/A   Clear
3:35 AM 35.6 °F 31.7 °F 32.0 °F 87% 29.88 in 10.0 mi SE 4.6 mph - N/A   Clear
3:55 AM 32.0 °F 27.5 °F 28.4 °F 87% 29.89 in 10.0 mi South 4.6 mph - N/A   Clear
4:15 AM 32.0 °F - 28.4 °F 87% 29.88 in 10.0 mi Calm Calm - N/A   Clear
4:35 AM 32.0 °F 26.4 °F 28.4 °F 87% 29.89 in 10.0 mi SSE 5.8 mph - N/A   Clear
5:15 AM 28.4 °F 21.2 °F 28.4 °F 100% 29.88 in 10.0 mi ENE 6.9 mph - N/A   Clear
5:35 AM 32.0 °F 27.5 °F 28.4 °F 87% 29.87 in 10.0 mi ENE 4.6 mph - N/A   Clear
5:55 AM 30.2 °F 23.4 °F 28.4 °F 93% 29.87 in 10.0 mi NNE 6.9 mph - N/A   Clear
6:35 AM 32.0 °F 28.7 °F 26.6 °F 80% 29.87 in 10.0 mi NW 3.5 mph - N/A   Clear
6:48 AM 30.2 °F 26.7 °F 26.6 °F 86% 29.88 in 15.0 mi NNW 3.5 mph - N/A   Partly Cloudy
7:57 AM 32.0 °F - 28.4 °F 87% 29.90 in 15.0 mi Calm Calm - N/A   Scattered Clouds
8:48 AM 35.6 °F 32.8 °F 28.4 °F 75% 29.91 in 15.0 mi South 3.5 mph - N/A   Scattered Clouds
9:58 AM 42.8 °F - 28.4 °F 57% 29.91 in 15.0 mi Calm Calm - N/A   Partly Cloudy
11:50 AM 50.0 °F - 28.4 °F 43% 29.89 in 15.0 mi SE 3.5 mph - N/A   Partly Cloudy
12:50 PM 51.8 °F - 30.2 °F 44% 29.86 in 15.0 mi Calm Calm - N/A   Partly Cloudy
1:50 PM 51.8 °F - 28.4 °F 41% 29.84 in 15.0 mi Variable 5.8 mph - N/A   Partly Cloudy
2:50 PM 53.6 °F - 21.2 °F 28% 29.83 in 15.0 mi NW 4.6 mph - N/A   Partly Cloudy
3:51 PM 51.8 °F - 24.8 °F 35% 29.83 in 15.0 mi WSW 13.8 mph - N/A   Partly Cloudy
4:50 PM 50.0 °F - 23.0 °F 35% 29.84 in 15.0 mi Variable 5.8 mph - N/A   Partly Cloudy
5:50 PM 44.6 °F 40.7 °F 23.0 °F 43% 29.86 in 15.0 mi WNW 6.9 mph - N/A   Partly Cloudy
6:50 PM 42.8 °F 39.3 °F 28.4 °F 57% 29.88 in 15.0 mi Variable 5.8 mph - N/A   Partly Cloudy
8:50 PM 35.6 °F 30.7 °F 26.6 °F 70% 29.90 in 15.0 mi Variable 5.8 mph - N/A   Partly Cloudy
8:55 PM 35.6 °F 30.7 °F 26.6 °F 70% 29.90 in 10.0 mi East 5.8 mph - N/A   Clear
9:15 PM 37.4 °F 34.9 °F 28.4 °F 70% 29.91 in 10.0 mi ESE 3.5 mph - N/A   Clear
9:35 PM 39.2 °F 35.0 °F 28.4 °F 65% 29.91 in 10.0 mi NE 5.8 mph - N/A   Mostly Cloudy
9:55 PM 39.2 °F - 26.6 °F 61% 29.91 in 10.0 mi Calm Calm - N/A   Scattered Clouds
10:15 PM 39.2 °F 35.0 °F 26.6 °F 61% 29.92 in 10.0 mi North 5.8 mph - N/A   Clear
10:35 PM 39.2 °F - 26.6 °F 61% 29.92 in 10.0 mi Calm Calm - N/A   Clear
10:55 PM 39.2 °F - 26.6 °F 61% 29.92 in 10.0 mi Calm Calm - N/A   Clear
11:15 PM 37.4 °F 32.8 °F 26.6 °F 65% 29.93 in 10.0 mi SSE 5.8 mph - N/A   Partly Cloudy
11:35 PM 37.4 °F 34.9 °F 28.4 °F 70% 29.92 in 10.0 mi ESE 3.5 mph - N/A   Mostly Cloudy
11:55 PM 37.4 °F 34.9 °F 30.2 °F 75% 29.92 in 10.0 mi ESE 3.5 mph - N/A   Overcast